Location: Caixon
(43.4106°N, 0.0273°E)
Time: 04:43:10
(UTC+00:00)

Meteor 2-10 - Pass Details

Date: 16 October 2021
Orbit: 738 x 868 km, 81.2° (Epoch: 30 November)

Event Time Altitude Azimuth Distance (km) Brightness Sun altitude
Rises 04:46:25 0° 344° (NNW) 3,182 7.1 -16.9°
Reaches altitude 10° 04:48:48 10° 338° (NNW) 2,256 6.2 -16.4°
Maximum altitude 04:53:37 47° 266° (W) 982 4.1 -15.5°
Drops below altitude 10° 04:58:29 10° 193° (SSW) 2,274 6.3 -14.7°
Sets 05:00:54 0° 188° (S) 3,210 7.1 -14.2°
